Regional Weather Roundup
Issued by NWS Charleston, SC

Current Version | Previous Version | Text Only | Print | Product List | Glossary On
Versions: 1 2 3 4 5 6 7 8 9 10 11 12 13 14 15 16 17 18 19 20 21 22 23 24 25 26 27 28 29 30 31 32 33 34 35 36 37 38 39 40 41 42 43 44 45 46 47 48 49 50
000 ASUS42 KCHS 241727 RWRCHS Regional Weather Roundup National Weather Service Charleston SC 100 PM EDT THU MAY 24 2018 NOTE: "fair" indicates few or no clouds below 12,000 feet with no significant weather and/or obstructions to visibility. Not all stations are quality controlled. Use data with caution, especially dewpoint observations. SCZ027-030-031-034>040-042>050-241800- ...Southeast South Carolina... CITY SKY/WX TMP DP RH WIND PRES REMARKS N Charleston RAIN 73 71 93 CALM 30.12R FOG Waterfront Prk N/A 81 74 79 S6 29.95F Mount Pleasant FAIR 77 75 94 N3 30.13R FOG Johns Island PTSUNNY 82 75 78 VRB6 30.11S Pinopolis N/A 79 73 83 VRB2 30.05F Moncks Corner FAIR 81 70 69 SE6 30.11S THUNDER Summerville TSTM 77 72 83 SE7 30.12R Beaufort MCAS PTSUNNY 87 72 60 CALM 30.08F THUNDER HX 93 Beaufort Arpt PTSUNNY 84 70 61 S3 30.08F THUNDER Hilton Head Is MOSUNNY 82 73 74 SE7G14 30.10F Walterboro CLOUDY 81 72 74 CALM 30.09F Allendale PTSUNNY 82 72 69 CALM 30.08F ...Southern Midlands and Pee Dee... CITY SKY/WX TMP DP RH WIND PRES REMARKS Georgetown FAIR 82 75 78 SE12 30.11F Kingstree FAIR 81 73 78 E7 30.10F Orangeburg FAIR 84 71 65 S7 30.10F Barnwell LGT RAIN 77 73 88 SE8 30.10F Aiken FAIR 82 70 65 SE6 30.13F Manning FAIR 75 68 78 CALM 30.10F Columbia HVY RAIN 79 72 79 N6 30.10F Sumter PTSUNNY 83 69 63 E7 30.09F Florence PTSUNNY 83 72 69 E8 30.12F Myrtle Beach LGT RAIN 77 73 88 E3 30.14S N Myrtle Beach CLOUDY 78 71 79 SE5 30.13S $$ GAZ063-065-086>088-099>101-113>116-118-119-134>141-150-241800- ...Southeast Georgia... CITY SKY/WX TMP DP RH WIND PRES REMARKS Savannah Arpt PTSUNNY 86 72 62 S5 30.08F THUNDER HX 92 Hunter AAF PTSUNNY 85 72 65 S6 30.06F HX 90 Fort Stewart CLOUDY 85 70 59 SE7 30.07F HX 90 Statesboro PTSUNNY 81 71 73 CALM 30.08F Sylvania CLOUDY 83 73 73 CALM 30.10F Claxton PTSUNNY 86 73 65 CALM 30.08F HX 92 ...CSRA, Central and far Southeast Georgia... CITY SKY/WX TMP DP RH WIND PRES REMARKS Thomson FAIR 82 71 69 E6 30.15F Augusta-Bush PTSUNNY 81 72 74 S5 30.09F Augusta-Daniel FAIR 83 71 67 E3 30.10F Swainsboro FAIR 81 72 74 CALM 30.10F Vidalia FAIR 84 70 61 E3 30.08F THUNDER Eastman PTSUNNY 83 65 54 CALM 30.11F Hazlehurst N/A 82 71 68 CALM 30.07F Alma PTSUNNY 84 70 62 S8 30.09F Waycross FAIR 87 66 50 W7 30.08F Jesup PTSUNNY 88 66 48 CALM 30.09F HX 90 Baxley CLOUDY 81 73 78 CALM 30.07F Brunswick CLOUDY 82 68 61 SE6 30.09F Saint Simons FAIR 83 74 74 SE9 30.10S $$ SCZ027-028-034-036>038-045-046-048>050-GAZ119-141-241800- ...Lake and Supplemental Coastal Observations... STATION/POSITION TIME TEMP WIND PRES WAVE SWELL AIR SEA DIR/SP/G HT/PER HT/PER/DIR (UTC) (F) (DEG/KT/KT) (MB) (FT/S) (FT/S/D) Winyah Bay 1645 79 140/ 7 1020.0S Lake Murray 1620 82 CALM 1019.0 ACE Basin NERRS 1645 86 130/ 1 1019.0S Fort Pulaski 1700 82 79 190/ 5/ 8 1019.3 Sapelo Island 1700 84 170/ 4 1019.0 $$ ANZ835-935-AMZ111-154-330-350-352-354-370-450-454-472-241800- ...C-MAN and Buoy Observations... STATION/POSITION TIME TEMP WIND PRES WAVE SWELL AIR SEA DIR/SP/G HT/PER HT/PER/DIR (UTC) (F) (DEG/KT/KT) (MB) (FT/S) (FT/S/D) Buoy 41004 1710 75 160/ 4/ 6 1019.9 Buoy 41008 1650 76 77 160/ 6/ 6 1019.5S 2/ 8 2/ 90/ 8 Folly Beach CMAN 1700 77 180/ 9/ 10 1020.1F Capers Nearshore 1708 77 79 180/ 8/ 10 1020.6F Fripp Nearshore 1708 77 79 170/ 8/ 12 1019.1F STATION/POSITION TIME TEMP WIND PRES WAVE SWELL AIR SEA DIR/SP/G HT/PER HT/PER/DIR (UTC) (F) (DEG/KT/KT) (MB) (FT/S) (FT/S/D) 5E St. Marys GA 1700 78 N/A 2/ 8 Frying Pan Buoy 1710 77 77 320/ 4/ 6 1020.4 Buoy 41025 1710 73 75 20/ 10/ 12 1021.6 Cape Lookout NC 1700 60/ 8/ 9 1021.5S Buoy 41002 1710 78 290/ 6/ 8 1020.6 Buoy 41010 1710 79 79 150/ 4/ 8 1020.6 St Augustine FL 1700 77 79 130/ 12/ 12 1019.6F $$

USA.gov is the U.S. government's official web portal to all federal, state and local government web resources and services.